Regional Weather Roundup
Issued by NWS

Home | Current Version | Previous Version | Text Only | Print | Product List | Glossary On
Versions: 1 2 3 4 5 6 7 8 9 10 11 12 13 14 15 16 17 18 19 20 21 22 23 24 25 26 27 28 29 30 31 32 33 34 35 36 37 38 39 40 41 42 43 44 45 46 47 48 49 50
000
ASUS45 KABQ 190210
RWRNM
NEW MEXICO REGIONAL WEATHER ROUNDUP
NATIONAL WEATHER SERVICE ALBUQUERQUE NM
800 PM MDT WED OCT 18 2017

NOTE: "FAIR" MEANS FEW OR NO CLOUDS BELOW 12,000 FEET AGL WITH NO
       SIGNIFICANT WEATHER OR OBSTRUCTIONS TO VISION.

      THIS PRODUCT IS RELEASED AS TWO VERSIONS.  ONE VERSION NEAR
      THE TOP OF THE HOUR CONTAINING PRELIMINARY DATA FROM ALBUQUERQUE
      AND OTHER STATIONS.  A FINAL VERSION WITH ADDITIONAL DATA IS
      ISSUED ABOUT 10 MINUTES AFTER THE HOUR.

NMZ501-503-504-510>518-190300-
NORTHWEST PLATEAU/NORTHCENTRAL MOUNTAINS

CITY           SKY/WX    TMP DP  RH WIND       PRES   REMARKS
FARMINGTON     FAIR      61  21  21 CALM      30.14R
LOS ALAMOS     FAIR      60  20  21 W9        30.27R
SANTA FE       FAIR      55  25  31 S3        30.20R
TAOS           FAIR      45  20  36 E8        30.29R
ANGEL FIRE     FAIR      37  24  59 CALM      30.36R

$$
NMZ402-403-502-505>509-190300-
WESTCENTRAL MOUNTAINS/SOUTHWEST MOUNTAINS

CITY           SKY/WX    TMP DP  RH WIND       PRES   REMARKS
GALLUP         FAIR      55  20  25 CALM      30.21R
GRANTS         FAIR      60  21  22 CALM      30.24R
SILVER CITY    MOCLDY    60  44  57 N5        30.15F

$$
NMZ407-409-411-412-190300-
SOUTHERN DESERTS

CITY           SKY/WX    TMP DP  RH WIND       PRES   REMARKS
DEMING         FAIR      67  47  48 SW5       30.08S
LAS CRUCES     FAIR      72  43  35 SW7       30.11S
HOLLOMAN AFB   FAIR      70  37  30 E3        30.08S
ALAMOGORDO     FAIR      66  37  34 E8        30.09S
T OR C         FAIR      73  38  27 S6        30.10R

$$
NMZ519>523-190300-
CENTRAL VALLEYS/CENTRAL HIGHLANDS

CITY           SKY/WX    TMP DP  RH WIND       PRES   REMARKS
ALBUQUERQUE    MOCLDY    63  22  20 E6        30.15R
DOUBLE EAGLE   MOCLDY    50  23  34 SW5       30.19R
MORIARTY ARPT  FAIR      53  26  34 CALM      30.22R
CLINES CORNERS FAIR      53  20  27 NW8       30.25R
BELEN          FAIR      60  30  32 SW7       30.14R
SOCORRO        FAIR      66  30  26 W7        30.12R

$$
NMZ524>526-539-540-190300-
SOUTHCENTRAL MOUNTAINS

CITY           SKY/WX    TMP DP  RH WIND       PRES   REMARKS
RUIDOSO        FAIR      59  34  38 W8        30.27R

$$
NMZ527>531-190300-
NORTHEAST HIGHLANDS/NORTHEAST PLAINS

CITY           SKY/WX    TMP DP  RH WIND       PRES   REMARKS
LAS VEGAS      FAIR      58  27  30 SE10      30.23R
RATON          FAIR      56  21  25 N10       30.21R
CLAYTON        FAIR      56  35  45 E8        30.14R

$$
NMZ532>537-190300-
EASTCENTRAL PLAINS

CITY           SKY/WX    TMP DP  RH WIND       PRES   REMARKS
SANTA ROSA     FAIR      62  28  27 E8        30.09R
CANNON AFB     CLEAR     66  40  38 W3        30.09R
CLOVIS AIRPORT FAIR      59  44  57 CALM      30.09R

$$
NMZ028-029-538-190300-
SOUTHEAST PLAINS

CITY           SKY/WX    TMP DP  RH WIND       PRES   REMARKS
ROSWELL        FAIR      66  50  56 S3        30.03R
ARTESIA        FAIR      68  48  49 S9        30.03S
CARLSBAD       FAIR      68  53  58 S9        30.03R
HOBBS          FAIR      63  46  55 S6        30.07R


$$




USA.gov is the U.S. government's official web portal to all federal, state and local government web resources and services.